Tracking 35237 objects as of 5-Sep-2026
HD Live streaming from Space Station
objects crossing your sky now

WESTFORD NEEDLES

Track WESTFORD NEEDLES now!
10-day predictions
WESTFORD NEEDLES is classified as:


NORAD ID: 19109
Int'l Code: 1963-014EJ
Launch date: May 9, 1963
Source: United States (US)
Launch site: AIR FORCE WESTERN TEST RANGE (AFWTR)
Your satellite tracking list
Your tracking list is empty




NASA's NSSDC Master Catalog

Two Line Element Set (TLE):
1 19109U 63014EJ  26247.46487912  .00000376  00000-0  69461-1 0  9999
2 19109  86.8576  59.0137 1302349  28.0329 338.4869  8.71732636465305
Source of the keplerian elements: AFSPC